User: anonymous   Login
Location: *
(51.1248°S, 108.4023°W)
Time: 10:31:33
(UTC+00:00)
Language:

IRS-1C Rocket - Orbit

View from above orbital plane
View from above orbital plane
View from above satellite
View from above satellite

Ground track
Ground track

The orbit data is extracted from the following two-line orbital elements,

1 23753U 95072C   21268.10807351 -.00000045  00000-0  76085-6 0  9999
2 23753  98.9425 299.0203 0004600  69.1981 290.9691 14.26602442339998
Epoch (UTC): 25 September 2021 02:35:37
Eccentricity: 0.0004600
inclination: 98.9425°
perigee height: 800 km
apogee height: 806 km
right ascension of ascending node: 299.0203°
argument of perigee: 69.1981°
revolutions per day: 14.26602442
mean anomaly at epoch: 290.9691°
orbit number at epoch: 33999

The dashed part of the orbit path shows where the satellite is in the earth's shadow,  

DLR